Terminal Aerodrome Forecast
Issued by NWS San Angelo, TX

Home | Current Version | Previous Version | Text Only | Print | Product List | Glossary On
Versions: 1 2 3 4 5 6 7 8 9 10 11 12 13 14 15 16 17 18 19 20 21 22
000
FTUS44 KSJT 010039 AAB
TAFSJT
TAF AMD
KSJT 010039Z 0101/0124 08009KT P6SM VCSH SCT040 BKN070 OVC250
     FM010500 14006KT P6SM VCSH BKN050
     FM010900 12004KT P6SM VCSH BKN020
     FM011500 VRB04KT P6SM VCSH BKN030
     FM011600 VRB04KT P6SM VCSH BKN040=

USA.gov is the U.S. government's official web portal to all federal, state and local government web resources and services.